{"data":{"norad_id":63726,"epoch":"2026-05-25T03:38:05.051040Z","epoch_age_seconds":58128,"freshness":"FRESH","line1":"1 63726U 25088C   26145.15144735 -.00000299  00000+0 -10178-4 0  9997","line2":"2 63726  51.9020 104.9892 0000692  62.3636 297.7397 14.79935267 59055","mean_motion":14.79935267,"eccentricity":6.92e-5,"inclination_deg":51.902,"raan_deg":104.9892,"arg_perigee_deg":62.3636,"mean_anomaly_deg":297.7397,"bstar":-1.0178e-5,"rev_number":5905,"period_min":97.301553122593,"perigee_km":629.04354237617,"apogee_km":630.01340327761,"semimajor_km":7007.6654728269,"source":"CELESTRAK","updated_at":"2026-05-25T13:38:03.924491Z"}}